Previsão horária em Judaszowka

Hoje, 18 Junho, Sexta-feira

Tempo Temperatura Precipitação Vento Pressão Humidade
00:00 +17°C° 0 mm 2 m/s 750 mmHg 87%
01:00 +17°C° 0 mm 2 m/s 750 mmHg 88%
02:00 +17°C° 0 mm 2 m/s 750 mmHg 88%
03:00 +16°C° 0 mm 2 m/s 749 mmHg 89%
04:00 +16°C° 0 mm 2 m/s 749 mmHg 89%
05:00 +18°C° 0 mm 3 m/s 749 mmHg 84%
06:00 +20°C° 0 mm 3 m/s 750 mmHg 78%
07:00 +22°C° 0 mm 3 m/s 750 mmHg 72%
08:00 +25°C° 0 mm 4 m/s 750 mmHg 66%
09:00 +26°C° 0 mm 4 m/s 750 mmHg 60%
10:00 +27°C° 0 mm 4 m/s 750 mmHg 54%
11:00 +28°C° 0 mm 4 m/s 749 mmHg 53%
12:00 +29°C° 0 mm 4 m/s 749 mmHg 51%
13:00 +29°C° 0 mm 4 m/s 749 mmHg 50%
14:00 +29°C° 0 mm 4 m/s 749 mmHg 51%
15:00 +29°C° 0 mm 4 m/s 748 mmHg 53%
16:00 +28°C° 0 mm 4 m/s 748 mmHg 55%
17:00 +27°C° 0 mm 4 m/s 748 mmHg 62%
18:00 +25°C° 0 mm 3 m/s 748 mmHg 69%
19:00 +24°C° 0 mm 3 m/s 748 mmHg 76%
20:00 +21°C° 0 mm 3 m/s 748 mmHg 80%
21:00 +20°C° 0 mm 3 m/s 748 mmHg 84%
22:00 +19°C° 0 mm 3 m/s 749 mmHg 88%
23:00 +18°C° 0 mm 2 m/s 748 mmHg 89%

Amanhã, 19 Junho, Sábado

Tempo Temperatura Precipitação Vento Pressão Humidade
00:00 +18°C° 0 mm 2 m/s 748 mmHg 90%
01:00 +17°C° 0 mm 2 m/s 748 mmHg 91%
02:00 +17°C° 0 mm 2 m/s 748 mmHg 92%
03:00 +17°C° 0 mm 2 m/s 748 mmHg 94%
04:00 +17°C° 0 mm 2 m/s 748 mmHg 96%
05:00 +19°C° 0 mm 3 m/s 748 mmHg 90%
06:00 +21°C° 0 mm 4 m/s 748 mmHg 83%
07:00 +22°C° 0 mm 5 m/s 748 mmHg 77%
08:00 +25°C° 0 mm 5 m/s 748 mmHg 72%
09:00 +26°C° 0 mm 5 m/s 748 mmHg 66%
10:00 +27°C° 0 mm 6 m/s 748 mmHg 60%
11:00 +28°C° 0 mm 5 m/s 748 mmHg 58%
12:00 +28°C° 0 mm 5 m/s 747 mmHg 56%
13:00 +29°C° 0 mm 5 m/s 747 mmHg 54%
14:00 +29°C° 0.1 mm 5 m/s 747 mmHg 56%
15:00 +28°C° 0.1 mm 5 m/s 747 mmHg 58%
16:00 +28°C° 0.1 mm 5 m/s 747 mmHg 60%
17:00 +26°C° 0.1 mm 4 m/s 747 mmHg 68%
18:00 +23°C° 0.1 mm 4 m/s 747 mmHg 76%
19:00 +22°C° 0.1 mm 3 m/s 747 mmHg 84%
20:00 +21°C° 0 mm 3 m/s 747 mmHg 88%
21:00 +20°C° 0 mm 3 m/s 746 mmHg 92%
22:00 +19°C° 0 mm 3 m/s 746 mmHg 96%
23:00 +18°C° 0 mm 3 m/s 746 mmHg 96%

Depois de amanhã, 20 Junho, Domingo

Tempo Temperatura Precipitação Vento Pressão Humidade
00:00 +18°C° 0 mm 3 m/s 746 mmHg 96%
01:00 +17°C° 0 mm 3 m/s 746 mmHg 96%
02:00 +17°C° 0 mm 3 m/s 746 mmHg 96%
03:00 +17°C° 0 mm 3 m/s 746 mmHg 95%
04:00 +16°C° 0 mm 3 m/s 746 mmHg 95%
05:00 +18°C° 0 mm 4 m/s 746 mmHg 89%
06:00 +19°C° 0 mm 4 m/s 746 mmHg 83%
07:00 +21°C° 0 mm 5 m/s 746 mmHg 77%
08:00 +22°C° 0 mm 5 m/s 746 mmHg 71%
09:00 +25°C° 0 mm 5 m/s 746 mmHg 66%
10:00 +26°C° 0 mm 4 m/s 746 mmHg 60%
11:00 +27°C° 0 mm 4 m/s 745 mmHg 58%
12:00 +28°C° 0 mm 4 m/s 745 mmHg 55%
13:00 +29°C° 0 mm 4 m/s 745 mmHg 53%
14:00 +29°C° 0 mm 4 m/s 744 mmHg 53%
15:00 +29°C° 0 mm 4 m/s 744 mmHg 53%
16:00 +29°C° 0 mm 4 m/s 744 mmHg 54%
17:00 +27°C° 0 mm 4 m/s 743 mmHg 62%
18:00 +26°C° 0 mm 4 m/s 743 mmHg 70%
19:00 +23°C° 0 mm 4 m/s 743 mmHg 79%
20:00 +22°C° 0 mm 3 m/s 743 mmHg 84%
21:00 +21°C° 0 mm 3 m/s 743 mmHg 88%
22:00 +20°C° 0 mm 3 m/s 743 mmHg 93%
23:00 +19°C° 0 mm 3 m/s 743 mmHg 94%

21 Junho, Segunda-feira

Tempo Temperatura Precipitação Vento Pressão Humidade
00:00 +19°C° 0 mm 3 m/s 742 mmHg 94%
01:00 +18°C° 0 mm 3 m/s 742 mmHg 95%
02:00 +18°C° 0 mm 3 m/s 742 mmHg 95%
03:00 +18°C° 0 mm 3 m/s 742 mmHg 96%
04:00 +17°C° 0 mm 3 m/s 742 mmHg 96%
05:00 +19°C° 0 mm 3 m/s 742 mmHg 90%
06:00 +21°C° 0 mm 4 m/s 742 mmHg 84%
07:00 +22°C° 0 mm 5 m/s 742 mmHg 78%
08:00 +25°C° 0 mm 5 m/s 742 mmHg 72%
09:00 +26°C° 0 mm 5 m/s 741 mmHg 67%
10:00 +27°C° 0 mm 5 m/s 741 mmHg 61%
11:00 +28°C° 0 mm 4 m/s 741 mmHg 59%
12:00 +29°C° 0 mm 4 m/s 741 mmHg 57%
13:00 +29°C° 0 mm 3 m/s 741 mmHg 55%
14:00 +29°C° 0 mm 3 m/s 741 mmHg 55%
15:00 +29°C° 0 mm 3 m/s 740 mmHg 55%
16:00 +29°C° 0 mm 3 m/s 740 mmHg 55%
17:00 +28°C° 0.1 mm 3 m/s 740 mmHg 63%
18:00 +26°C° 0.1 mm 3 m/s 740 mmHg 71%
19:00 +25°C° 0.1 mm 3 m/s 740 mmHg 79%
20:00 +24°C° 0.1 mm 3 m/s 740 mmHg 83%
21:00 +21°C° 0.1 mm 3 m/s 740 mmHg 87%
22:00 +20°C° 0.1 mm 3 m/s 740 mmHg 92%
23:00 +20°C° 0 mm 2 m/s 740 mmHg 92%

22 Junho, Terça-feira

Tempo Temperatura Precipitação Vento Pressão Humidade
00:00 +20°C° 0 mm 2 m/s 740 mmHg 92%
01:00 +19°C° 0 mm 2 m/s 740 mmHg 92%
02:00 +19°C° 0.3 mm 2 m/s 741 mmHg 93%
03:00 +19°C° 0.3 mm 2 m/s 741 mmHg 93%
04:00 +19°C° 0.3 mm 2 m/s 741 mmHg 94%
05:00 +20°C° 0 mm 2 m/s 741 mmHg 89%
06:00 +23°C° 0 mm 2 m/s 741 mmHg 84%
07:00 +24°C° 0 mm 2 m/s 742 mmHg 79%
08:00 +26°C° 0.1 mm 2 m/s 742 mmHg 73%
09:00 +27°C° 0.1 mm 2 m/s 742 mmHg 67%
10:00 +29°C° 0.1 mm 2 m/s 742 mmHg 61%
11:00 +30°C° 0.8 mm 2 m/s 742 mmHg 58%
12:00 +30°C° 0.8 mm 1 m/s 742 mmHg 55%
13:00 +31°C° 0.8 mm 1 m/s 742 mmHg 53%
14:00 +31°C° 0 mm 1 m/s 742 mmHg 53%
15:00 +30°C° 0 mm 1 m/s 742 mmHg 54%
16:00 +30°C° 0 mm 1 m/s 742 mmHg 55%
17:00 +29°C° 0 mm 1 m/s 742 mmHg 60%
18:00 +28°C° 0 mm 1 m/s 742 mmHg 65%
19:00 +27°C° 0 mm 1 m/s 742 mmHg 70%
20:00 +26°C° 0.4 mm 2 m/s 743 mmHg 75%
21:00 +24°C° 0.4 mm 2 m/s 743 mmHg 80%
22:00 +23°C° 0.4 mm 2 m/s 743 mmHg 84%
23:00 +23°C° 0.2 mm 1 m/s 743 mmHg 85%

23 Junho, Quarta-feira

Tempo Temperatura Precipitação Vento Pressão Humidade
00:00 +22°C° 0.2 mm 1 m/s 743 mmHg 86%
01:00 +22°C° 0.2 mm 1 m/s 743 mmHg 88%
02:00 +22°C° 0.1 mm 1 m/s 743 mmHg 88%
03:00 +22°C° 0.1 mm 1 m/s 743 mmHg 89%
04:00 +21°C° 0.1 mm 1 m/s 744 mmHg 89%
05:00 +23°C° 0 mm 1 m/s 744 mmHg 84%
06:00 +25°C° 0 mm 1 m/s 744 mmHg 79%
07:00 +26°C° 0 mm 1 m/s 744 mmHg 75%
08:00 +28°C° 0.1 mm 1 m/s 744 mmHg 69%
09:00 +29°C° 0.1 mm 1 m/s 744 mmHg 63%
10:00 +30°C° 0.1 mm 1 m/s 745 mmHg 58%
11:00 +31°C° 0.1 mm 1 m/s 745 mmHg 55%
12:00 +32°C° 0.1 mm 1 m/s 745 mmHg 52%
13:00 +32°C° 0.1 mm 1 m/s 745 mmHg 50%
14:00 +32°C° 0 mm 1 m/s 745 mmHg 50%
15:00 +32°C° 0 mm 1 m/s 744 mmHg 51%
16:00 +32°C° 0 mm 2 m/s 744 mmHg 52%
17:00 +31°C° 0 mm 2 m/s 744 mmHg 59%
18:00 +29°C° 0 mm 2 m/s 744 mmHg 66%
19:00 +28°C° 0 mm 2 m/s 744 mmHg 73%
20:00 +27°C° 0.1 mm 2 m/s 745 mmHg 77%
21:00 +25°C° 0.1 mm 2 m/s 745 mmHg 80%
22:00 +24°C° 0.1 mm 2 m/s 745 mmHg 83%
23:00 +24°C° 0 mm 2 m/s 745 mmHg 85%
Mostrar mais

Necessitamos do seu Consentimento

A Meteoprog e os seus Fornecedores de Serviços podem armazenar e aceder a dados pessoais como cookies, identificadores do dispositivo ou outras tecnologias semelhantes existentes no seu dispositivo e processar estes dados para personalizar conteúdos e anúncios, assim como funcionalidades nas redes sociais e análise de tráfego.

  • Armazenar e/ou aceder a informações no seu dispositivo

    Os cookies, identificadores do dispositivo ou outras informações podem ser armazenados ou acedidos no seu dispositivo, para os fins acima indicados.

  • Anúncios e conteúdos personalizados, medição de anúncios e conteúdos, dados sobre o público-alvo e desenvolvimento de produtos

    Os anúncios e os conteúdos podem ser personalizados com base num perfil. Podem ser adicionados dados adicionais para uma maior personalização dos anúncios e dos conteúdos. A eficácia dos anúncios e dos conteúdos pode ser medida. Podem ser obtidas informações sobre o público que visualizou os anúncios e os conteúdos. Estes dados podem ser usados para desenvolver ou melhorar sistemas, softwares ou a experiência do utilizador.

Ao clicar em "Eu concordo”, permitirá o uso de cookies, identificadores do dispositivo e web beacons mencionados ou outras tecnologias semelhantes. As configurações do navegador do seu dispositivo podem ser alteradas.

Para certos fins, podem ser invocados interesses legítimos ao invés de consentimento. Pode ler mais informação sobre este assunto na nossa Política de Privacidade e Cookies.